FW3337 Weather Reports


Display with metric or nautical units.
time (UTC)temp
F
wind
direction
speed
MPH
gust
MPH
rain 1hr
in
rain 24hr
in
rain mn
in
humidity
%
barometer
mb
20260906221538 71 88 0.0 1.0 0.00 0.00 0.00 59 1015.2
20260906220032 72 74 0.0 2.0 0.00 0.00 0.00 58 1015.1
20260906214531 72 87 0.0 4.0 0.00 0.00 0.00 58 1014.8
20260906213030 72 96 0.0 6.0 0.00 0.00 0.00 59 1014.8
20260906211529 73 100 0.0 4.0 0.00 0.00 0.00 60 1014.7
20260906210030 73 97 0.0 4.0 0.00 0.00 0.00 60 1014.6
20260906204550 73 55 0.0 3.0 0.00 0.00 0.00 59 1014.4
20260906203027 73 89 0.0 4.0 0.00 0.00 0.00 59 1014.4
20260906201527 73 92 1.0 6.0 0.00 0.00 0.00 60 1014.3
20260906200027 73 70 0.0 6.0 0.00 0.00 0.00 59 1014.2
20260906194525 73 75 0.0 3.0 0.00 0.00 0.00 62 1014.1
20260906193024 73 79 0.0 7.0 0.00 0.00 0.00 63 1014.3
20260906191523 73 4 0.0 4.0 0.00 0.00 0.00 63 1014.3
20260906190023 73 97 0.0 6.0 0.00 0.00 0.00 62 1014.2
20260906184523 73 72 0.0 2.0 0.00 0.00 0.00 66 1014.3
20260906183023 74 68 3.0 8.0 0.00 0.00 0.00 60 1014.3
20260906181526 73 93 0.0 4.0 0.00 0.00 0.00 67 1014.5
20260906180028 73 89 0.0 5.0 0.00 0.00 0.00 64 1014.4
20260906174516 73 68 0.0 4.0 0.00 0.00 0.00 65 1014.4
20260906173015 73 62 3.0 8.0 0.00 0.00 0.00 64 1014.6
20260906171511 73 75 0.0 4.0 0.00 0.00 0.00 64 1014.7
20260906170007 73 58 0.0 8.0 0.00 0.00 0.00 66 1014.8
20260906164504 72 116 1.0 6.0 0.00 0.00 0.00 66 1014.8
20260906163003 72 68 0.0 2.0 0.00 0.00 0.00 71 1014.9
20260906161503 72 324 1.0 6.0 0.00 0.00 0.00 69 1015.1
20260906160001 71 98 4.0 10.0 0.00 0.00 0.00 69 1015.1
20260906154600 71 329 0.0 3.0 0.00 0.00 0.00 74 1015.1
20260906153059 71 79 0.0 8.0 0.00 0.00 0.00 74 1015.1
20260906151559 70 86 1.0 7.0 0.00 0.00 0.00 75 1015.2
20260906150109 70 276 0.0 4.0 0.00 0.00 0.00 75 1015.2
20260906144555 70 54 0.0 3.0 0.00 0.00 0.00 77 1015.2
20260906143055 70 103 1.0 7.0 0.00 0.00 0.00 78 1015.1
20260906141551 70 97 0.0 3.0 0.00 0.00 0.00 78 1014.9
20260906140056 69 81 2.0 7.0 0.00 0.00 0.00 78 1014.9
20260906134546 69 85 2.0 7.0 0.00 0.00 0.00 79 1014.7
20260906133109 68 52 0.0 3.0 0.00 0.00 0.00 82 1014.9
20260906131541 67 98 1.0 6.0 0.00 0.00 0.00 84 1014.8
20260906130037 66 95 1.0 3.0 0.00 0.00 0.00 88 1014.6
20260906124535 63 92 2.0 4.0 0.00 0.00 0.00 95 1014.7
20260906123030 61 282 0.0 0.0 0.00 0.00 0.00 97 1014.8
20260906121530 59 282 0.0 0.0 0.00 0.00 0.00 97 1014.8
20260906120032 59 282 0.0 0.0 0.00 0.00 0.00 96 1014.5
20260906114541 58 282 0.0 0.0 0.00 0.00 0.00 96 1014.4
20260906113026 58 282 0.0 0.0 0.00 0.00 0.00 97 1014.2
20260906111524 57 282 0.0 0.0 0.00 0.00 0.00 97 1014.0
20260906110022 56 282 0.0 0.0 0.00 0.00 0.00 97 1013.9
20260906104523 56 282 0.0 0.0 0.00 0.00 0.00 97 1013.6
20260906103017 56 282 0.0 0.0 0.00 0.00 0.00 97 1013.3
20260906101522 56 282 0.0 0.0 0.00 0.00 0.00 96 1013.2
20260906100022 56 282 0.0 0.0 0.00 0.00 0.00 96 1013.2
20260906094512 57 282 0.0 0.0 0.00 0.00 0.00 96 1012.9
20260906093010 57 282 0.0 0.0 0.00 0.00 0.00 96 1012.9
20260906091514 57 282 0.0 0.0 0.00 0.00 0.00 96 1012.6
20260906090014 57 282 0.0 0.0 0.00 0.00 0.00 96 1012.6
20260906084507 57 282 0.0 1.0 0.00 0.00 0.00 96 1012.6
20260906083003 57 282 0.0 0.0 0.00 0.00 0.00 96 1012.3
20260906081502 58 282 0.0 0.0 0.00 0.00 0.00 96 1012.2
20260906080002 58 282 0.0 0.0 0.00 0.00 0.00 96 1012.1
20260906074501 58 282 0.0 0.0 0.00 0.00 0.00 96 1012.3
20260906073059 58 282 0.0 0.0 0.00 0.00 0.00 96 1012.1
20260906071600 59 282 0.0 0.0 0.00 0.00 0.00 95 1012.1
20260906070059 59 282 0.0 0.0 0.00 0.00 0.00 95 1012.1
20260906064555 59 282 0.0 0.0 0.00 0.00 0.00 95 1012.2
20260906063054 59 282 0.0 0.0 0.00 0.00 0.00 95 1012.2
20260906061554 60 282 0.0 0.0 0.00 0.00 0.00 95 1012.3
20260906060053 60 282 0.0 0.0 0.00 0.00 0.00 95 1012.4
20260906054601 60 282 0.0 0.0 0.00 0.00 0.00 95 1012.3
20260906053057 61 282 0.0 0.0 0.00 0.00 0.00 95 1012.2
20260906051605 61 282 0.0 0.0 0.00 0.00 0.00 94 1012.5
20260906050046 61 282 0.0 0.0 0.00 0.00 0.00 94 1012.4
20260906044551 62 282 0.0 0.0 0.00 0.00 0.00 94 1012.4
20260906043045 62 282 0.0 0.0 0.00 0.00 0.00 94 1012.5
20260906041540 62 282 0.0 0.0 0.00 0.00 0.00 93 1012.2
20260906040112 63 282 0.0 1.0 0.00 0.00 0.00 93 1012.2
20260906034537 63 282 0.0 2.0 0.00 0.00 0.00 93 1012.1
20260906033048 62 282 0.0 0.0 0.00 0.00 0.00 94 1012.0
20260906031536 63 282 0.0 0.0 0.00 0.00 0.00 93 1012.0
20260906030033 63 282 0.0 0.0 0.00 0.00 0.00 93 1011.8
20260906024532 64 282 0.0 0.0 0.00 0.00 0.00 93 1011.8
20260906023031 64 282 0.0 0.0 0.00 0.00 0.00 93 1011.9
20260906021532 64 282 0.0 1.0 0.00 0.00 0.00 93 1011.9
20260906020030 64 282 0.0 2.0 0.00 0.00 0.00 93 1011.9
20260906014530 64 282 0.0 0.0 0.00 0.00 0.00 93 1011.8
20260906013032 64 282 0.0 0.0 0.00 0.00 0.00 92 1011.7
20260906011527 64 282 0.0 0.0 0.00 0.00 0.00 92 1011.6
20260906010026 65 282 0.0 0.0 0.00 0.00 0.00 91 1011.4
20260906004523 65 282 0.0 0.0 0.00 0.00 0.00 91 1011.3
20260906003023 65 282 0.0 0.0 0.00 0.00 0.00 89 1011.1
20260906001524 66 282 0.0 0.0 0.00 0.00 0.00 89 1010.9
20260906000021 67 282 0.0 0.0 0.00 0.00 0.00 88 1010.8
20260905234520 68 282 0.0 0.0 0.00 0.00 0.00 87 1010.6
20260905233019 69 282 0.0 0.0 0.00 0.00 0.00 85 1010.6
20260905231521 70 282 0.0 0.0 0.00 0.00 0.00 83 1010.7
20260905230018 71 282 0.0 0.0 0.00 0.00 0.00 82 1010.5
20260905224542 72 282 0.0 0.0 0.00 0.00 0.00 81 1010.4
20260905223021 73 282 0.0 0.0 0.00 0.00 0.00 78 1010.2